Location: ?????
(32.7281°N, 34.9563°E)
Time: 18:19:01
(UTC+00:00)

CZ-4B R/B - Pass Details

Date: 13 March 2021
Orbit: 388 x 454 km, 97.6° (Epoch: 18 April)

Event Time Altitude Azimuth Distance (km) Brightness Sun altitude
Rises 03:07:51 0° 167° (SSE) 2,304 5.1 -10.3°
Reaches altitude 10° 03:09:49 10° 168° (SSE) 1,440 4.1 -9.9°
Maximum altitude 03:12:53 89° 263° (W) 399 1.1 -9.3°
Drops below altitude 10° 03:15:56 10° 348° (NNW) 1,429 3.9 -8.6°
Sets 03:17:53 0° 349° (NNW) 2,285 4.9 -8.2°
